User: anonymous   Login
Location: Sternwarte Stuttgart
(48.7670°N, 9.1830°E)
Time: 09:10:21
(UTC+01:00)
Language:

Aureole 1 Rocket - Orbit

View from above orbital plane
View from above orbital plane
View from above satellite
View from above satellite

Ground track
Ground track

The orbit data is extracted from the following two-line orbital elements,

1  5730U 71119B   19084.97096081  .00000700  00000-0  47983-4 0  9998
2  5730  73.8920  73.0371 0693883 187.0743 172.0203 14.03273390296378
Epoch (UTC): 25 March 2019 23:18:11
Eccentricity: 0.0693883
inclination: 73.8920°
perigee height: 378 km
apogee height: 1386 km
right ascension of ascending node: 73.0371°
argument of perigee: 187.0743°
revolutions per day: 14.03273390
mean anomaly at epoch: 172.0203°
orbit number at epoch: 29637

The dashed part of the orbit path shows where the satellite is in the earth's shadow,  

DLR